FALCON 9 R/B, 59347

Orbit data source: Space-Track

FALCON 9 R/B, 59347 is space debris in HEO originally from a launch on Sat, 30 Mar 2024 UTC launched from the Air Force Eastern Test Range (AFETR). Debris objects in space refer to the collection of defunct objects orbiting the Earth. Examples of debris include non-operational satellites, rocket bodies, and fragments generated from explosions, collisions, or faulty payload assembly.

Loading next visibility...
Identifier
59347, 2024-059B
Orbit
HEO
Country
Flag of USUS
Related business
Manufacturer
SpaceX
Mission
Spacecraft
Bus & Motor
F9ST2, Unknown motor
Mass
~4,000 kg wet, ~4,000 kg dry
Launch date (UTC)
2024-03-30 (1 year ago)
Launch vehicle
Unknown
Launch site
Air Force Eastern Test Range (AFETR)
Object type
Payload
Rocket body
Debris
Shape & HBR
Cyl, 7.8 m
Radar Cross Section
39.980 m², Large (>1 m²)

Expand to show TLE details & history
Last TLE update: 1 day ago

TLE from 1 day ago
0 FALCON 9 R/B
1 59347U 24059B   25260.61587713  .00000319  00000-0  16136-2 0  9993
2 59347  25.0340 251.8190 8161344 343.3773   0.7383  1.24217525  6621
Epoch: 2025-09-17T14:46Z
TLE epoch observation values (Epoch: 2025-09-17T14:46:51.784Z)
Latitude
0.00284°
Longitude
33.35844°
Altitude
522.03 km
Speed
10.228 km/s
True Right ascension
16h 47m 27s
True Declination
0° 00' 10"
Sunlit
Object was in daylight at epoch
Visualization orbit readout
Latitude
Unknown
Longitude
Unknown
Altitude
Unknown
Speed
Unknown
Apparent Right ascension
Unknown
Apparent Declination
Unknown
Sunlit
N/A
Visualization observer readout
Local Sidereal Time
15:24:55
Azimuth
Unknown
Elevation
Unknown
Doppler factor
Unknown
Orbital elements
Apogee altitude
60,018.961 km
Perigee altitude
343.911 km
Semi-major axis
36,559.573 km
Eccentricity
0.81613
Inclination
25.034°
RAAN
251.819°
Arg. of periapsis
343.3773°
True anomaly
12.5295°
Mean anomaly
0.7383°
Eccentric anomaly
4.001°
Mean motion
0.31049 °/min
Orbital period
1,159.47 mins
BSTAR
0.0016136
Loading maneuver chart data...
Computing Atmospheric mass density...
Loading historical data...
Loading historical data...
Loading historical data...
Loading historical data...
Loading historical data...
Loading historical data...
Loading historical data...
Other satellites on launch #59 in the year 2024 (2024-03-30 UTC)

Documentation

Showing up to 5 results
|